GW2236 Weather Reports


time (UTC)temp
C
wind
direction
speed
KPH
gust
KPH
rain 1hr
cm
rain 24hr
cm
rain mn
cm
humidity
%
barometer
mb
20260506034351 11 263 8.0 17.7 0.00 0.05 0.05 60 1013.5
20260506033848 11 278 8.0 9.7 0.00 0.05 0.05 61 1013.4
20260506033345 11 253 4.8 4.8 0.00 0.05 0.05 62 1013.4
20260506032842 11 290 4.8 4.8 0.00 0.05 0.05 63 1013.5
20260506032339 11 313 16.1 20.9 0.00 0.05 0.05 63 1013.3
20260506031836 11 278 12.9 14.5 0.00 0.05 0.05 64 1012.9
20260506031333 11 343 4.8 11.3 0.00 0.05 0.05 64 1012.9
20260506030830 11 350 4.8 8.0 0.00 0.05 0.05 63 1013.2
20260506030329 11 333 8.0 12.9 0.00 0.05 0.05 63 1012.9
20260506025825 11 297 8.0 11.3 0.00 0.05 0.05 63 1012.8
20260506025321 11 317 14.5 17.7 0.00 0.05 0.05 63 1012.8
20260506024819 11 274 11.3 14.5 0.00 0.05 0.05 63 1012.5
20260506024315 11 321 11.3 14.5 0.00 0.05 0.05 62 1012.5
20260506023811 11 57 8.0 11.3 0.00 0.05 0.05 61 1012.3
20260506023308 11 296 11.3 12.9 0.00 0.05 0.05 61 1012.0
20260506022805 11 271 8.0 11.3 0.00 0.05 0.05 59 1012.2
20260506022305 12 310 11.3 16.1 0.00 0.05 0.05 58 1012.0
20260506021801 12 36 8.0 11.3 0.00 0.05 0.05 57 1011.9
20260506021258 13 300 4.8 4.8 0.00 0.05 0.05 56 1011.8
20260506020754 13 332 4.8 8.0 0.00 0.05 0.05 59 1011.5
20260506020252 13 333 0.0 1.6 0.00 0.05 0.05 61 1011.3
20260506015749 13 243 0.0 0.0 0.00 0.05 0.05 60 1010.8
20260506015247 13 257 0.0 0.0 0.00 0.05 0.05 59 1010.6
20260506014743 13 290 0.0 0.0 0.00 0.05 0.05 58 1010.6
20260506014240 14 233 1.6 1.6 0.00 0.05 0.05 57 1010.7
20260506013737 14 227 3.2 3.2 0.00 0.05 0.05 56 1010.7
20260506013234 14 201 1.6 3.2 0.00 0.05 0.05 55 1010.5
20260506012730 14 188 1.6 3.2 0.00 0.05 0.05 55 1010.5
20260506012228 15 194 0.0 1.6 0.00 0.05 0.05 55 1010.6
20260506011725 15 255 1.6 1.6 0.00 0.05 0.05 53 1010.3
20260506011221 15 211 3.2 4.8 0.00 0.05 0.05 53 1010.5
20260506010720 15 185 6.4 8.0 0.00 0.05 0.05 51 1010.7
20260506010217 15 215 1.6 1.6 0.00 0.05 0.05 52 1010.3
20260506005714 16 216 1.6 3.2 0.00 0.05 0.05 50 1010.3
20260506005210 16 249 6.4 8.0 0.00 0.05 0.05 49 1010.2
20260506004706 16 254 8.0 11.3 0.00 0.05 0.05 50 1010.0
20260506004204 16 242 4.8 4.8 0.00 0.05 0.05 52 1010.0
20260506003700 15 310 1.6 3.2 0.00 0.05 0.05 57 1010.7
20260506003157 15 252 4.8 8.0 0.00 0.05 0.05 60 1010.7
20260506002652 16 300 3.2 3.2 0.00 0.05 0.05 51 1010.3
20260506002149 16 252 1.6 1.6 0.00 0.05 0.05 46 1010.3
20260506001644 16 270 6.4 9.7 0.00 0.05 0.05 46 1010.2
20260506001142 16 285 3.2 4.8 0.00 0.05 0.05 45 1010.1
20260506000640 16 276 3.2 9.7 0.00 0.05 0.05 45 1010.3
20260506000137 16 278 1.6 1.6 0.00 0.05 0.05 45 1010.2
20260505235635 16 226 3.2 4.8 0.00 0.05 0.05 45 1010.3
20260505235132 16 201 0.0 1.6 0.00 0.05 0.05 45 1010.1
20260505234628 17 13 3.2 3.2 0.00 0.05 0.05 46 1010.2
20260505234125 18 78 0.0 0.0 0.00 0.05 0.05 44 1010.0
20260505233622 18 240 3.2 3.2 0.00 0.05 0.05 41 1010.2
20260505233120 18 267 1.6 1.6 0.00 0.05 0.05 44 1010.2
20260505232617 18 247 3.2 4.8 0.00 0.05 0.05 43 1010.3
20260505232115 18 288 4.8 8.0 0.00 0.05 0.05 41 1010.2
20260505231611 18 340 1.6 3.2 0.00 0.05 0.05 42 1010.5
20260505231110 17 248 3.2 4.8 0.00 0.05 0.05 43 1010.3
20260505230608 17 272 4.8 8.0 0.00 0.05 0.05 43 1010.7
20260505225600 18 299 3.2 4.8 0.00 0.05 0.05 43 1010.8
20260505225056 18 293 6.4 8.0 0.00 0.05 0.05 46 1010.8
20260505224553 17 268 3.2 4.8 0.00 0.05 0.05 46 1010.5
20260505224050 16 349 0.0 0.0 0.00 0.05 0.05 52 1010.7
20260505223547 16 323 6.4 9.7 0.00 0.05 0.05 48 1010.8
20260505223044 16 169 4.8 4.8 0.00 0.05 0.05 48 1010.7
20260505222540 16 207 3.2 3.2 0.00 0.05 0.05 48 1010.8
20260505222037 16 318 0.0 0.0 0.00 0.05 0.05 47 1010.9
20260505221534 16 192 3.2 3.2 0.00 0.05 0.05 51 1011.2
20260505221030 16 203 1.6 3.2 0.00 0.05 0.05 51 1011.4
20260505220528 15 264 4.8 8.0 0.00 0.05 0.05 56 1011.3
20260505220025 15 233 4.8 4.8 0.00 0.05 0.05 55 1011.4
20260505215523 15 227 4.8 8.0 0.00 0.05 0.05 55 1011.5
20260505215021 14 216 6.4 8.0 0.00 0.05 0.05 61 1011.8
20260505214519 13 261 8.0 14.5 0.18 0.05 0.05 71 1012.3
20260505214015 13 257 8.0 11.3 0.18 0.05 0.05 70 1012.5
20260505213513 13 215 11.3 16.1 0.00 0.03 0.03 64 1012.5
20260505213009 15 270 4.8 8.0 0.00 0.03 0.03 62 1012.1
20260505212505 16 266 6.4 11.3 0.00 0.03 0.03 52 1012.0
20260505212002 17 226 3.2 4.8 0.00 0.03 0.03 48 1011.9
20260505211500 17 146 0.0 1.6 0.00 0.03 0.03 48 1011.9
20260505210956 17 246 1.6 3.2 0.00 0.03 0.03 45 1011.6
20260505210453 17 240 1.6 1.6 0.00 0.03 0.03 45 1011.8
20260505205950 17 236 1.6 3.2 0.00 0.03 0.03 44 1011.6
20260505205449 17 249 6.4 9.7 0.00 0.03 0.03 44 1011.9
20260505204945 17 18 3.2 3.2 0.00 0.03 0.03 45 1011.8
20260505204443 18 260 3.2 3.2 0.00 0.03 0.03 43 1012.0
20260505203940 17 231 3.2 4.8 0.00 0.03 0.03 43 1011.6
20260505203436 17 4 3.2 3.2 0.00 0.03 0.03 45 1012.1
20260505202933 18 140 4.8 4.8 0.00 0.03 0.03 42 1011.8
20260505202429 18 203 1.6 1.6 0.00 0.03 0.03 42 1012.2
20260505201925 18 254 1.6 3.2 0.00 0.03 0.03 43 1012.2
20260505201422 17 275 4.8 8.0 0.00 0.03 0.03 46 1012.1
20260505200921 17 30 3.2 4.8 0.00 0.03 0.03 45 1012.1
20260505200418 17 245 1.6 1.6 0.00 0.03 0.03 47 1012.0
20260505195913 16 294 4.8 8.0 0.00 0.03 0.03 50 1012.0
20260505195411 15 100 0.0 1.6 0.00 0.03 0.03 51 1011.9
20260505194908 15 260 4.8 4.8 0.00 0.03 0.03 52 1012.3
20260505194406 15 336 8.0 9.7 0.00 0.03 0.03 53 1012.3
20260505193905 15 260 8.0 14.5 0.00 0.03 0.03 55 1012.7
20260505193403 14 223 8.0 12.9 0.00 0.03 0.03 54 1012.7
20260505192901 14 307 9.7 14.5 0.00 0.03 0.03 55 1012.8
20260505192359 15 253 6.4 12.9 0.00 0.03 0.03 56 1012.7
20260505191856 15 224 8.0 12.9 0.00 0.03 0.03 55 1012.8
20260505191354 16 299 4.8 8.0 0.00 0.03 0.03 56 1012.9
20260505190851 15 83 1.6 3.2 0.00 0.03 0.03 56 1012.9
20260505190346 16 197 4.8 4.8 0.00 0.03 0.03 56 1013.3
20260505185842 15 151 3.2 3.2 0.00 0.03 0.03 60 1013.2
20260505185339 14 99 0.0 1.6 0.00 0.03 0.03 63 1012.9
20260505184835 14 252 4.8 8.0 0.00 0.03 0.03 66 1012.8
20260505184332 13 207 1.6 3.2 0.00 0.03 0.03 68 1012.9
20260505183829 13 224 4.8 8.0 0.00 0.03 0.03 71 1013.2
20260505183326 13 176 0.0 1.6 0.13 0.03 0.03 74 1013.2
20260505182823 13 170 6.4 8.0 0.13 0.03 0.03 71 1013.4
20260505182319 13 109 8.0 12.9 0.00 0.00 0.00 66 1013.0
20260505181816 13 114 6.4 9.7 0.00 0.00 0.00 64 1013.0
20260505181314 15 118 4.8 8.0 0.00 0.00 0.00 52 1013.4
20260505180810 15 129 3.2 3.2 0.00 0.00 0.00 50 1012.8
20260505180306 14 154 3.2 4.8 0.00 0.00 0.00 49 1012.9
20260505175803 16 131 1.6 1.6 0.00 0.00 0.00 45 1013.2
20260505175259 16 111 1.6 1.6 0.00 0.00 0.00 46 1013.0
20260505174756 15 343 0.0 0.0 0.00 0.00 0.00 47 1012.7
20260505174253 15 164 4.8 4.8 0.00 0.00 0.00 46 1012.8
20260505173749 16 59 4.8 4.8 0.00 0.00 0.00 45 1012.8
20260505173246 15 51 1.6 3.2 0.00 0.00 0.00 47 1012.9
20260505172743 15 329 4.8 4.8 0.00 0.00 0.00 47 1012.6
20260505172240 15 35 0.0 0.0 0.00 0.00 0.00 46 1012.7
20260505171740 15 55 4.8 4.8 0.00 0.00 0.00 47 1012.6
20260505171237 14 284 1.6 1.6 0.00 0.00 0.00 48 1012.8
20260505170734 14 5 4.8 8.0 0.00 0.00 0.00 49 1013.0
20260505170231 13 7 6.4 8.0 0.00 0.00 0.00 49 1012.7
20260505165726 13 324 6.4 8.0 0.00 0.00 0.00 49 1012.9
20260505165222 13 302 4.8 8.0 0.00 0.00 0.00 49 1013.0
20260505164718 13 288 6.4 9.7 0.00 0.00 0.00 50 1013.0
20260505164215 13 315 1.6 3.2 0.00 0.00 0.00 51 1012.7
20260505163713 13 354 9.7 12.9 0.00 0.00 0.00 51 1012.7
20260505163211 13 29 6.4 8.0 0.00 0.00 0.00 53 1012.9
20260505162708 13 324 8.0 9.7 0.00 0.00 0.00 53 1012.9
20260505162206 12 13 9.7 11.3 0.00 0.00 0.00 55 1012.9
20260505161702 12 4 9.7 16.1 0.00 0.00 0.00 55 1013.0
20260505161200 12 344 8.0 11.3 0.00 0.00 0.00 58 1012.9
20260505160657 12 3 6.4 9.7 0.00 0.00 0.00 60 1013.2
20260505160155 11 327 8.0 16.1 0.00 0.00 0.00 61 1013.5
20260505153134 11 330 6.4 14.5 0.00 0.00 0.00 70 1013.5
20260505152630 12 341 6.4 11.3 0.00 0.00 0.00 66 1013.6
20260505152126 11 339 8.0 11.3 0.00 0.00 0.00 66 1013.7
20260505151622 12 268 6.4 8.0 0.00 0.00 0.00 66 1013.7
20260505151120 12 349 4.8 11.3 0.00 0.00 0.00 66 1013.5
20260505150615 12 0 9.7 12.9 0.00 0.00 0.00 65 1013.7
20260505150113 12 281 4.8 8.0 0.00 0.00 0.00 67 1013.4
20260505140541 13 239 0.0 1.6 0.00 0.00 0.00 50 1013.4
20260505124954 13 264 1.6 3.2 0.00 0.00 0.00 43 1012.5
20260505124452 13 303 1.6 1.6 0.00 0.00 0.00 43 1012.3
20260505123948 13 283 3.2 4.8 0.00 0.00 0.00 44 1012.7
20260505123444 14 283 4.8 9.7 0.00 0.00 0.00 42 1012.2
20260505122940 13 295 6.4 8.0 0.00 0.00 0.00 41 1012.5
20260505122437 14 276 6.4 9.7 0.00 0.00 0.00 41 1012.5
20260505121934 14 247 1.6 3.2 0.00 0.00 0.00 42 1012.3
20260505121431 14 281 3.2 3.2 0.00 0.00 0.00 42 1012.5
20260505120927 14 225 8.0 16.1 0.00 0.00 0.00 42 1012.5
20260505120424 14 276 8.0 11.3 0.00 0.00 0.00 42 1012.3
20260505115922 13 259 4.8 8.0 0.00 0.00 0.00 42 1012.3
20260505115419 14 194 3.2 3.2 0.00 0.00 0.00 43 1012.2
20260505114917 14 287 1.6 3.2 0.00 0.00 0.00 42 1012.5
20260505114413 14 271 3.2 3.2 0.00 0.00 0.00 43 1012.5
20260505113910 14 282 1.6 1.6 0.00 0.00 0.00 43 1012.5
20260505113407 14 261 3.2 3.2 0.00 0.00 0.00 43 1012.1
20260505112902 14 234 4.8 4.8 0.00 0.00 0.00 43 1012.3
20260505112400 14 216 4.8 4.8 0.00 0.00 0.00 43 1012.1
20260505111856 14 246 1.6 3.2 0.00 0.00 0.00 42 1012.2
20260505111351 15 249 4.8 4.8 0.00 0.00 0.00 42 1012.1
20260505110847 15 200 3.2 3.2 0.00 0.00 0.00 42 1012.0
20260505110345 15 212 4.8 4.8 0.00 0.00 0.00 41 1012.3
20260505101821 15 269 4.8 9.7 0.00 0.00 0.00 35 1012.5
20260505101310 15 357 4.8 4.8 0.00 0.00 0.00 35 1012.5
20260505100807 15 232 6.4 9.7 0.00 0.00 0.00 35 1012.6
20260505100304 15 250 4.8 4.8 0.00 0.00 0.00 35 1012.5
20260505095759 15 248 1.6 3.2 0.00 0.00 0.00 34 1012.2
20260505095257 15 232 4.8 8.0 0.00 0.00 0.00 34 1012.1
20260505094752 15 242 3.2 3.2 0.00 0.00 0.00 34 1012.3
20260505094250 15 233 1.6 1.6 0.00 0.00 0.00 33 1012.6
20260505093745 15 262 1.6 1.6 0.00 0.00 0.00 34 1012.5
20260505093243 15 235 1.6 3.2 0.00 0.00 0.00 34 1012.6
20260505092740 15 14 0.0 0.0 0.00 0.00 0.00 35 1012.6
20260505092238 15 296 0.0 0.0 0.00 0.00 0.00 34 1012.3
20260505091735 15 345 0.0 1.6 0.00 0.00 0.00 34 1012.5
20260505091233 15 359 0.0 0.0 0.00 0.00 0.00 33 1012.3
20260505090730 15 267 0.0 0.0 0.00 0.00 0.00 33 1012.6
20260505090229 15 247 1.6 1.6 0.00 0.00 0.00 32 1012.5
20260505085726 15 243 4.8 4.8 0.00 0.00 0.00 32 1012.3
20260505085224 15 282 4.8 4.8 0.00 0.00 0.00 32 1012.3
20260505084721 15 305 4.8 4.8 0.00 0.00 0.00 32 1012.7
20260505084220 15 229 4.8 4.8 0.00 0.00 0.00 33 1012.7
20260505083716 15 254 1.6 3.2 0.00 0.00 0.00 33 1012.9
20260505083213 15 227 0.0 1.6 0.00 0.00 0.00 33 1013.2
20260505082709 15 308 0.0 1.6 0.00 0.00 0.00 33 1013.3
20260505082207 16 212 0.0 1.6 0.00 0.00 0.00 32 1013.3
20260505081702 16 268 3.2 3.2 0.00 0.00 0.00 32 1013.0
20260505081200 16 278 1.6 1.6 0.00 0.00 0.00 32 1013.3
20260505080657 16 284 3.2 3.2 0.00 0.00 0.00 31 1013.3
20260505080152 16 337 6.4 11.3 0.00 0.00 0.00 32 1013.4
20260505075649 16 236 4.8 8.0 0.00 0.00 0.00 31 1013.2
20260505075146 16 190 6.4 8.0 0.00 0.00 0.00 31 1013.0
20260505074643 16 290 6.4 9.7 0.00 0.00 0.00 31 1013.4
20260505074139 16 208 4.8 9.7 0.00 0.00 0.00 31 1012.9
20260505073637 16 274 1.6 1.6 0.00 0.00 0.00 31 1013.0
20260505073135 16 183 4.8 4.8 0.00 0.00 0.00 31 1012.9
20260505072630 16 117 1.6 3.2 0.00 0.00 0.00 31 1012.9
20260505072127 16 150 3.2 3.2 0.00 0.00 0.00 31 1013.2
20260505071623 16 279 1.6 1.6 0.00 0.00 0.00 31 1013.0
20260505071121 17 216 4.8 4.8 0.00 0.00 0.00 30 1012.9
20260505070618 17 236 3.2 3.2 0.00 0.00 0.00 30 1012.9
20260505070114 17 239 4.8 8.0 0.00 0.00 0.00 30 1013.0
20260505065610 17 218 4.8 8.0 0.00 0.00 0.00 30 1012.8
20260505065107 17 280 4.8 4.8 0.00 0.00 0.00 30 1012.7
20260505064604 17 213 1.6 3.2 0.00 0.00 0.00 29 1012.6
20260505064103 17 216 4.8 8.0 0.00 0.00 0.00 29 1012.8
20260505063559 17 230 6.4 8.0 0.00 0.00 0.00 29 1012.8
20260505063055 17 209 6.4 8.0 0.00 0.00 0.00 28 1012.5
20260505062552 17 292 8.0 11.3 0.00 0.00 0.00 28 1012.6
20260505062049 17 204 4.8 8.0 0.00 0.00 0.00 28 1012.7
20260505061546 17 187 1.6 4.8 0.00 0.00 0.00 27 1012.6
20260505061044 17 238 8.0 11.3 0.00 0.00 0.00 27 1012.7
20260505060541 17 240 8.0 11.3 0.00 0.00 0.00 27 1012.9
20260505060038 18 203 9.7 14.5 0.00 0.00 0.00 27 1012.7
20260505055533 18 212 8.0 11.3 0.00 0.00 0.00 26 1012.7
20260505055030 18 205 8.0 11.3 0.00 0.00 0.00 26 1012.5
20260505054527 18 249 6.4 9.7 0.00 0.00 0.00 26 1012.3
20260505054026 18 199 6.4 11.3 0.00 0.00 0.00 26 1012.5
20260505053522 18 249 8.0 11.3 0.00 0.00 0.00 25 1012.9
20260505053019 18 241 12.9 22.5 0.00 0.00 0.00 25 1012.7
20260505052516 18 220 8.0 12.9 0.00 0.00 0.00 25 1012.5
20260505052014 18 268 8.0 11.3 0.00 0.00 0.00 24 1012.7
20260505051510 18 213 6.4 8.0 0.00 0.00 0.00 24 1012.3
20260505051009 18 267 8.0 9.7 0.00 0.00 0.00 24 1012.5
20260505050506 18 252 4.8 4.8 0.00 0.00 0.00 24 1012.3
20260505041434 19 236 4.8 9.7 0.00 0.00 0.00 23 1012.1
20260505040931 19 251 4.8 8.0 0.00 0.00 0.00 23 1012.0
20260505040429 20 245 3.2 3.2 0.00 0.00 0.00 23 1012.2
20260505035925 20 281 3.2 3.2 0.00 0.00 0.00 23 1011.5
20260505035421 20 202 3.2 3.2 0.00 0.00 0.00 23 1012.0
20260505034919 19 246 1.6 1.6 0.00 0.00 0.00 23 1011.8